Location: Burgerwiesen
(48.6500°N, 15.6167°E)
Time: 12:31:42
(UTC+00:00)

COSMOS 2406 - Pass Details

Date: 09 April 2020
Orbit: 842 x 865 km, 71.0° (Epoch: 27 May)

Event Time Altitude Azimuth Distance (km) Brightness Sun altitude
Exits shadow 19:13:13 22° 132° (SE) 1,777 4.3 -14.9°
Maximum altitude 19:15:05 26° 103° (ESE) 1,610 4.1 -15.2°
Drops below altitude 10° 19:19:42 10° 48° (NE) 2,488 5.5 -15.8°
Sets 19:22:31 0° 37° (NE) 3,433 6.3 -16.2°
